Location: Unspecified
(0.0000°N, 0.0000°E)
Time: 01:26:48
(UTC+00:00)

SR - Pass Details

Date: 04 October 2020
Orbit: 581 x 874 km, 66.7° (Epoch: 25 October)

Event Time Altitude Azimuth Distance (km) Brightness Sun altitude
Rises 19:17:08 0° 313° (NW) 3,249 ? -22.1°
Reaches altitude 10° 19:19:58 10° 299° (WNW) 2,372 ? -22.8°
Maximum altitude 19:24:09 22° 249° (WSW) 1,729 ? -23.8°
Drops below altitude 10° 19:28:32 10° 199° (SSW) 2,487 ? -24.9°
Sets 19:31:37 0° 184° (S) 3,448 ? -25.7°
